Shawnee, OK

5:07 PM CDT on August 23, 2017 (GMT -0500)
Shawnee Municipal

Weather History for KSNL - February, 2013

Change the Weather History Date:

Sunday, February 17, 2013

  Actual Average (KTIK) Record (KTIK)
Temperature  
Mean Temperature 55 °F -  
Max Temperature 73 °F 52 °F 78 °F (2011)
Min Temperature 37 °F 33 °F 15 °F (2001)
Degree Days  
Heating Degree Days 10    
Growing Degree Days 5 (Base 50)    
Moisture  
Dew Point 35 °F    
Average Humidity 51    
Maximum Humidity 81    
Minimum Humidity 27    
Precipitation  
Precipitation 0.00 in - - ()
Sea Level Pressure  
Sea Level Pressure 29.93 in    
Wind  
Wind Speed 12 mph (South)    
Max Wind Speed 23 mph    
Max Gust Speed 37 mph    
Visibility 10 miles    
Events      
Averages and records for this station are not official NWS values.
T = Trace of Precipitation, MM = Missing Value Source: NWS Daily Summary

Daily Weather History Graph

Daily Weather History Graph

Search for Another Location

Airport or City:

Trip Planner

Search our weather history database for the weather conditions in past years. The results will help you decide how hot, cold, wet, or windy it might be!

Date:

Astronomy

Feb. 17, 2013 Rise Set
Actual Time 7:11 AM CST 6:12 PM CST
Civil Twilight 6:45 AM CST 6:38 PM CST
Nautical Twilight 6:16 AM CST 7:07 PM CST
Astronomical Twilight 5:46 AM CST 7:37 PM CST
Moon 11:22 AM CST (2/17) 12:52 AM CST (2/17)
Length of Visible Light 11h 52m
Length of Day
11h 00m
Waxing Crescent, 49% of the Moon is Illuminated
Feb 17
Waxing Crescent
Feb 17
First Quarter
Feb 25
Full
Mar 4
Last Quarter
Mar 11
New

Hourly Weather History & Observations

Time (CST) Temp. Windchill Dew Point Humidity Pressure Visibility Wind Dir Wind Speed Gust Speed Precip Events Conditions
12:15 AM 42.8 °F 38.6 °F 32.0 °F 66% 30.09 in 10.0 mi South 6.9 mph - N/A   Clear
12:35 AM 42.8 °F 38.0 °F 32.0 °F 66% 30.09 in 10.0 mi SSW 8.1 mph - N/A   Clear
12:55 AM 42.8 °F 38.0 °F 32.0 °F 66% 30.08 in 10.0 mi SSW 8.1 mph - N/A   Clear
1:15 AM 42.8 °F 37.5 °F 32.0 °F 66% 30.08 in 10.0 mi SSW 9.2 mph - N/A   Clear
1:35 AM 42.8 °F 37.5 °F 32.0 °F 66% 30.07 in 10.0 mi SSW 9.2 mph - N/A   Clear
1:55 AM 41.0 °F 36.4 °F 32.0 °F 70% 30.07 in 10.0 mi South 6.9 mph - N/A   Clear
2:15 AM 41.0 °F 35.8 °F 32.0 °F 70% 30.07 in 10.0 mi SSW 8.1 mph - N/A   Clear
2:35 AM 42.8 °F 37.5 °F 32.0 °F 66% 30.06 in 10.0 mi SSW 9.2 mph - N/A   Clear
2:55 AM 41.0 °F 35.8 °F 32.0 °F 70% 30.06 in 10.0 mi South 8.1 mph - N/A   Clear
3:15 AM 41.0 °F 36.4 °F 32.0 °F 70% 30.05 in 10.0 mi South 6.9 mph - N/A   Clear
3:35 AM 41.0 °F 35.2 °F 32.0 °F 70% 30.04 in 10.0 mi South 9.2 mph - N/A   Clear
3:55 AM 41.0 °F 37.1 °F 32.0 °F 70% 30.04 in 10.0 mi South 5.8 mph - N/A   Clear
4:15 AM 41.0 °F 36.4 °F 32.0 °F 70% 30.03 in 10.0 mi South 6.9 mph - N/A   Clear
4:35 AM 39.2 °F 34.2 °F 32.0 °F 75% 30.03 in 10.0 mi South 6.9 mph - N/A   Clear
4:55 AM 41.0 °F 37.1 °F 32.0 °F 70% 30.03 in 10.0 mi South 5.8 mph - N/A   Clear
5:15 AM 39.2 °F 34.2 °F 32.0 °F 75% 30.03 in 10.0 mi South 6.9 mph - N/A   Clear
5:55 AM 41.0 °F 36.4 °F 32.0 °F 70% 30.03 in 10.0 mi South 6.9 mph - N/A   Clear
6:15 AM 39.2 °F 35.9 °F 32.0 °F 75% 30.03 in 10.0 mi South 4.6 mph - N/A   Clear
6:35 AM 37.4 °F 32.1 °F 32.0 °F 81% 30.02 in 10.0 mi South 6.9 mph - N/A   Clear
6:55 AM 37.4 °F 31.4 °F 32.0 °F 81% 30.02 in 10.0 mi SSE 8.1 mph - N/A   Clear
7:15 AM 37.4 °F 31.4 °F 32.0 °F 81% 30.02 in 10.0 mi South 8.1 mph - N/A   Clear
7:35 AM 37.4 °F 30.3 °F 32.0 °F 81% 30.01 in 10.0 mi South 10.4 mph - N/A   Clear
7:55 AM 39.2 °F 32.5 °F 32.0 °F 75% 30.01 in 10.0 mi South 10.4 mph - N/A   Clear
8:15 AM 41.0 °F 34.7 °F 32.0 °F 70% 30.02 in 10.0 mi South 10.4 mph - N/A   Clear
8:35 AM 42.8 °F 37.0 °F 33.8 °F 70% 30.02 in 10.0 mi South 10.4 mph - N/A   Clear
8:55 AM 44.6 °F 38.8 °F 33.8 °F 66% 30.02 in 10.0 mi South 11.5 mph - N/A   Clear
9:15 AM 48.2 °F - 35.6 °F 62% 30.01 in 10.0 mi South 12.7 mph - N/A   Clear
9:35 AM 51.8 °F - 35.6 °F 54% 30.01 in 10.0 mi South 13.8 mph - N/A   Clear
9:55 AM 51.8 °F - 35.6 °F 54% 30.01 in 10.0 mi SSW 13.8 mph - N/A   Clear
10:15 AM 55.4 °F - 37.4 °F 51% 30.00 in 10.0 mi SW 15.0 mph - N/A   Clear
10:35 AM 59.0 °F - 35.6 °F 42% 30.00 in 10.0 mi SSW 17.3 mph - N/A   Clear
10:55 AM 60.8 °F - 35.6 °F 39% 29.99 in 10.0 mi SW 12.7 mph - N/A   Clear
11:15 AM 60.8 °F - 35.6 °F 39% 29.99 in 10.0 mi SSW 16.1 mph - N/A   Clear
11:35 AM 62.6 °F - 35.6 °F 37% 29.98 in 10.0 mi SSW 16.1 mph 19.6 mph N/A   Clear
11:55 AM 62.6 °F - 37.4 °F 39% 29.97 in 10.0 mi SW 17.3 mph 20.7 mph N/A   Clear
12:15 PM 64.4 °F - 37.4 °F 37% 29.95 in 10.0 mi SSW 16.1 mph - N/A   Clear
12:55 PM 68.0 °F - 37.4 °F 33% 29.93 in 10.0 mi SSW 13.8 mph 20.7 mph N/A   Clear
1:15 PM 68.0 °F - 37.4 °F 33% 29.91 in 10.0 mi South 13.8 mph 21.9 mph N/A   Clear
1:35 PM 71.6 °F - 41.0 °F 33% 29.89 in 10.0 mi South 17.3 mph 23.0 mph N/A   Clear
1:55 PM 71.6 °F - 37.4 °F 29% 29.89 in 10.0 mi SSW 15.0 mph 25.3 mph N/A   Clear
2:15 PM 71.6 °F - 37.4 °F 29% 29.87 in 10.0 mi South 16.1 mph 20.7 mph N/A   Clear
2:35 PM 71.6 °F - 37.4 °F 29% 29.87 in 10.0 mi South 18.4 mph - N/A   Clear
2:55 PM 71.6 °F - 39.2 °F 31% 29.85 in 10.0 mi South 18.4 mph 28.8 mph N/A   Clear
3:15 PM 71.6 °F - 39.2 °F 31% 29.84 in 10.0 mi South 20.7 mph 25.3 mph N/A   Clear
3:35 PM 71.6 °F - 39.2 °F 31% 29.84 in 10.0 mi South 19.6 mph 26.5 mph N/A   Clear
3:55 PM 71.6 °F - 39.2 °F 31% 29.83 in 10.0 mi South 19.6 mph 28.8 mph N/A   Clear
4:15 PM 73.4 °F - 41.0 °F 31% 29.82 in 10.0 mi South 19.6 mph 25.3 mph N/A   Clear
4:35 PM 73.4 °F - 37.4 °F 27% 29.81 in 10.0 mi South 16.1 mph 26.5 mph N/A   Clear
5:15 PM 71.6 °F - 37.4 °F 29% 29.81 in 10.0 mi South 21.9 mph 26.5 mph N/A   Clear
5:35 PM 71.6 °F - 37.4 °F 29% 29.80 in 10.0 mi South 21.9 mph - N/A   Clear
5:55 PM 68.0 °F - 37.4 °F 33% 29.79 in 10.0 mi South 18.4 mph 25.3 mph N/A   Clear
6:15 PM 68.0 °F - 37.4 °F 33% 29.80 in 10.0 mi South 16.1 mph 24.2 mph N/A   Clear
6:35 PM 64.4 °F - 37.4 °F 37% 29.80 in 10.0 mi South 18.4 mph 21.9 mph N/A   Clear
6:55 PM 64.4 °F - 37.4 °F 37% 29.81 in 10.0 mi South 17.3 mph - N/A   Clear
7:15 PM 62.6 °F - 37.4 °F 39% 29.81 in 10.0 mi South 17.3 mph - N/A   Clear
7:35 PM 62.6 °F - 35.6 °F 37% 29.80 in 10.0 mi South 18.4 mph 26.5 mph N/A   Clear
7:55 PM 62.6 °F - 35.6 °F 37% 29.80 in 10.0 mi South 20.7 mph 27.6 mph N/A   Clear
8:15 PM 62.6 °F - 35.6 °F 37% 29.80 in 10.0 mi South 20.7 mph 26.5 mph N/A   Clear
8:35 PM 60.8 °F - 35.6 °F 39% 29.79 in 10.0 mi South 20.7 mph 25.3 mph N/A   Clear
8:55 PM 60.8 °F - 35.6 °F 39% 29.80 in 10.0 mi South 18.4 mph 31.1 mph N/A   Clear
9:15 PM 60.8 °F - 37.4 °F 42% 29.79 in 10.0 mi South 20.7 mph 26.5 mph N/A   Clear
9:35 PM 60.8 °F - 37.4 °F 42% 29.79 in 10.0 mi South 20.7 mph 26.5 mph N/A   Clear
9:55 PM 60.8 °F - 37.4 °F 42% 29.79 in 10.0 mi South 19.6 mph 28.8 mph N/A   Clear
10:15 PM 60.8 °F - 37.4 °F 42% 29.79 in 10.0 mi South 18.4 mph 32.2 mph N/A   Clear
10:35 PM 60.8 °F - 37.4 °F 42% 29.78 in 10.0 mi South 20.7 mph 36.8 mph N/A   Clear
10:55 PM 60.8 °F - 37.4 °F 42% 29.78 in 10.0 mi South 21.9 mph 34.5 mph N/A   Clear
11:15 PM 60.8 °F - 39.2 °F 45% 29.78 in 10.0 mi South 20.7 mph 34.5 mph N/A   Clear
11:35 PM 60.8 °F - 41.0 °F 48% 29.78 in 10.0 mi South 21.9 mph 31.1 mph N/A   Clear
11:55 PM 59.0 °F - 41.0 °F 51% 29.77 in 10.0 mi South 23.0 mph 27.6 mph N/A   Clear